Regional Weather Roundup
Issued by NWS

Home | Current Version | Previous Version | Text Only | Print | Product List | Glossary Off
Versions: 1 2 3 4 5 6 7 8 9 10 11 12 13 14 15 16 17 18 19 20 21 22 23 24 25 26 27 28 29 30 31 32 33 34 35 36 37 38 39 40 41 42 43 44 45 46 47 48 49 50

000
ASUS45 KABQ 032310
RWRNM
WEATHER ROUNDUP FOR NEW MEXICO
NATIONAL WEATHER SERVICE ALBUQUERQUE NM
500 PM MDT SUN MAY 03 2015

NOTE: "FAIR" MEANS FEW OR NO CLOUDS BELOW 12,000 FEET AGL WITH NO
       SIGNIFICANT WEATHER OR OBSTRUCTIONS TO VISION.

      THIS PRODUCT IS RELEASED AS TWO VERSIONS.  ONE VERSION NEAR
      THE TOP OF THE HOUR CONTAINING PRELIMINARY DATA FROM ALBUQUERQUE
      AND OTHER STATIONS.  A FINAL VERSION WITH ADDITIONAL DATA IS
      ISSUED ABOUT 10 MINUTES AFTER THE HOUR.

NMZ501-503-504-510>518-040000-
NORTHWEST PLATEAU/NORTHCENTRAL MOUNTAINS

CITY           SKY/WX    TMP DP  RH WIND       PRES   REMARKS
FARMINGTON     SUNNY     67  33  28 W10       29.98F
LOS ALAMOS     PTSUNNY   65  31  27 NW3       30.05F
SANTA FE       CLOUDY    66  33  29 E14       30.00R
TAOS           CLOUDY    64  32  29 W14G21    30.07R
ANGEL FIRE     LGT RAIN  44  40  86 NE16      30.18R

$$
NMZ402-403-502-505>509-040000-
WESTCENTRAL MOUNTAINS/SOUTHWEST MOUNTAINS

CITY           SKY/WX    TMP DP  RH WIND       PRES   REMARKS
GALLUP         PTSUNNY   68  26  20 S13G18    30.03F
GRANTS         CLOUDY    68  35  28 N7        30.05F
SILVER CITY      N/A     75  32  20 S12       29.98F

$$
NMZ407-409-411-412-040000-
SOUTHERN DESERTS

CITY           SKY/WX    TMP DP  RH WIND       PRES   REMARKS
LORDSBURG      MOCLDY    82  34  17 W17G24    29.88F
DEMING         MOSUNNY   80  35  19 NW5       29.90F
LAS CRUCES     MOSUNNY   80  39  23 NW7       29.90F
HOLLOMAN AFB   MOSUNNY   83  28  13 SW5       29.85F
ALAMOGORDO     MOSUNNY   82  28  14 SW6       29.87F
T OR C         CLOUDY    78  30  17 SW12G21   29.89F

$$
NMZ519>523-040000-
CENTRAL VALLEYS/CENTRAL HIGHLANDS

CITY           SKY/WX    TMP DP  RH WIND       PRES   REMARKS
ALBUQUERQUE    PTSUNNY   75  31  19 W23G30    29.96F
DOUBLE EAGLE   PTSUNNY   72  36  26 SW26G33   30.00S
MORIARTY ARPT  FAIR      71  25  17 S3        30.00F
CLINES CORNERS PTSUNNY   68  27  21 W26G32    30.01F
BELEN          FAIR      77  27  16 W10       29.95F THUNDER
SOCORRO        FAIR      79  27  14 N6        29.91F

$$
NMZ524>526-539-540-040000-
SOUTHCENTRAL MOUNTAINS

CITY           SKY/WX    TMP DP  RH WIND       PRES   REMARKS
RUIDOSO        MOSUNNY   73  18  12 W13G24    30.04F

$$
NMZ527>531-040000-
NORTHEAST HIGHLANDS/NORTHEAST PLAINS

CITY           SKY/WX    TMP DP  RH WIND       PRES   REMARKS
LAS VEGAS      LGT RAIN  58  42  55 N16       30.02S
RATON          CLOUDY    63  38  39 NW20G26   30.01R
CLAYTON        PTSUNNY   77  34  21 SW14      29.89S

$$
NMZ532>537-040000-
EASTCENTRAL PLAINS

CITY           SKY/WX    TMP DP  RH WIND       PRES   REMARKS
TUCUMCARI      TSTM      70  47  43 NW5       29.88R
CANNON AFB     PTSUNNY   81  40  23 SE14G22   29.87S
CLOVIS AIRPORT CLOUDY    77  45  31 SE12      29.88F

$$
NMZ028-029-538-040000-
SOUTHEAST PLAINS

CITY           SKY/WX    TMP DP  RH WIND       PRES   REMARKS
ROSWELL        MOSUNNY   86  35  16 SE9       29.82F
ARTESIA        MOSUNNY   77  45  31 S17G47    29.85R
CARLSBAD       PTSUNNY   84  42  22 SE13      29.83F
HOBBS          TSTM      77  48  36 S16       29.89R


$$



USA.gov is the U.S. government's official web portal to all federal, state and local government web resources and services.